Home   Weather   Viernheim   Past weeks

Flag for Germany Past Weather in Viernheim, Hesse, Germany — Yesterday and Last 2 Weeks

Now
50 °F

Clear.


Feels Like: 45 °F
Forecast: 36 / 66 °F
Wind: 13 mph from Northeast

Location: Frankfurt-M-Flughafen Airport

Current Time: Apr 29, 2017 at 11:31:32 pm

Latest Report: Apr 29, 2017 at 10:50 pm


Visibility: 10 mi

Pressure: 30.01 "Hg

Humidity: 50%

Dew Point: 32 °F

Location of ViernheimLocation

Past Weather in Viernheim — Graph

°F

Viernheim Temperature Yesterday

Maximum temperature yesterday: 55 °F (at 1:20 pm)
Minimum temperature yesterday: 32 °F (at 6:20 am)
Average temperature yesterday: 47 °F

High & Low Weather Summary for the Past Weeks

 TemperatureHumidityPressure
High63 °F (Apr 24, 5:20 pm)100% (Apr 17, 10:20 am)30.60 "Hg (Apr 17, 10:20 am)
Low27 °F (Apr 20, 4:20 am)24% (Apr 26, 4:20 pm)29.68 "Hg (Apr 25, 3:50 am)
Average46 °F60%30.12 "Hg
* Reported Apr 14 9:50 pm — Apr 29 9:50 pm, Viernheim, Weather by CustomWeather, © 2017

Note: Actual official high and low records may vary slightly from our data, if they occured in-between our weather recording intervals... More about our weather records

Advertising

Viernheim Weather History for the Previous 24 Hours

Scroll right to see more
 ConditionsComfort  
Time TempWeatherWind HumidityBarometerVisibility
9:50 pm
Sat, Apr 29
52 °FClear.9 mph44%30.01 "Hg10 mi
9:20 pm54 °FClear.13 mph41%30.01 "Hg10 mi
8:50 pm55 °FPassing clouds.10 mph38%30.01 "HgN/A
8:20 pm57 °FSunny.12 mph36%30.01 "Hg10 mi
7:50 pm59 °FSunny.8 mph31%29.98 "Hg10 mi
7:20 pm59 °FPassing clouds.3 mph31%29.98 "HgN/A
6:50 pm61 °FPassing clouds.5 mph31%29.98 "HgN/A
6:20 pm59 °FPassing clouds.6 mph31%30.01 "HgN/A
5:50 pm59 °FSunny.6 mph31%30.01 "Hg10 mi
5:20 pm61 °FPassing clouds.6 mph29%30.01 "HgN/A
4:50 pm59 °FSunny.5 mph31%30.01 "Hg10 mi
4:20 pm59 °FPassing clouds.7 mph34%30.01 "HgN/A
3:50 pm59 °FPassing clouds.7 mph31%30.01 "HgN/A
3:20 pm57 °FSunny.2 mph36%30.04 "Hg10 mi
2:50 pm57 °FPassing clouds.10 mph36%30.04 "HgN/A
2:20 pm55 °FPassing clouds.8 mph38%30.04 "HgN/A
1:50 pm57 °FPassing clouds.10 mph36%30.04 "HgN/A
12:50 pm55 °FPassing clouds.10 mph41%30.04 "HgN/A
12:20 pm52 °FScattered clouds.8 mph44%30.07 "HgN/A
11:50 am52 °FScattered clouds.10 mph47%30.07 "HgN/A
11:20 am52 °FScattered clouds.8 mph47%30.07 "HgN/A
10:50 am52 °FPassing clouds.2 mph50%30.07 "HgN/A
9:50 am52 °FPassing clouds.7 mph58%30.07 "HgN/A
9:20 am48 °FScattered clouds.7 mph62%30.07 "HgN/A
8:50 am48 °FPassing clouds.7 mph66%30.07 "HgN/A
8:20 am45 °FPassing clouds.5 mph76%30.07 "HgN/A
7:50 am43 °FSunny.7 mph81%30.07 "Hg10 mi
7:20 am43 °FSunny.6 mph81%30.07 "Hg10 mi
6:50 am43 °FSunny.5 mph81%30.04 "Hg10 mi
6:20 am41 °FPassing clouds.3 mph87%30.04 "HgN/A
5:50 am41 °FClear.3 mph87%30.04 "Hg10 mi
5:20 am41 °FPassing clouds.3 mph87%30.04 "HgN/A
4:50 am41 °FClear.5 mph87%30.04 "Hg10 mi
4:20 am41 °FClear.5 mph87%30.04 "Hg10 mi
3:50 am41 °FClear.3 mph87%30.04 "Hg10 mi
3:20 am43 °FClear.7 mph81%30.04 "Hg10 mi
2:50 am45 °FClear.6 mph76%30.04 "Hg10 mi
2:20 am45 °FClear.5 mph76%30.01 "Hg10 mi
1:50 am45 °FClear.6 mph76%30.01 "Hg10 mi
1:20 am45 °FClear.5 mph76%30.01 "Hg10 mi
12:50 am46 °FClear.3 mph71%30.01 "Hg10 mi
12:20 am48 °FClear.3 mph66%30.01 "Hg10 mi
11:50 pm
Fri, Apr 28
48 °FClear.6 mph66%30.01 "Hg10 mi
Weather by CustomWeather, © 2017

See weather overviewHow to use our weather pages